User: anonymous   Login
Location: Newark
(39.6867°N, 100.6772°W)
Time: 23:23:26
(UTC+00:00)
Language:

Explorer 11/Cluster Stage 4 - Orbit

View from above orbital plane
View from above orbital plane
View from above satellite
View from above satellite

Ground track
Ground track

The orbit data is extracted from the following two-line orbital elements,

1   107U 61013A   19287.82450993  .00000307  00000-0  22326-4 0  9995
2   107  28.7875 134.2151 0547198   3.1375 357.2439 14.08831163930962
Epoch (UTC): 14 October 2019 19:47:17
Eccentricity: 0.0547198
inclination: 28.7875°
perigee height: 467 km
apogee height: 1259 km
right ascension of ascending node: 134.2151°
argument of perigee: 3.1375°
revolutions per day: 14.08831163
mean anomaly at epoch: 357.2439°
orbit number at epoch: 93096

The dashed part of the orbit path shows where the satellite is in the earth's shadow,  

DLR